Regional Weather Roundup
Issued by NWS

Home | Current Version | Previous Version | Graphics & Text | Print | Product List | Glossary On
Versions: 1 2 3 4 5 6 7 8 9 10 11 12 13 14 15 16 17 18 19 20 21 22 23 24 25 26 27 28 29 30 31 32 33 34 35 36 37 38 39 40 41 42 43 44 45 46 47 48 49 50
000
ASUS43 KFSD 252210
RWRSD

WEATHER ROUNDUP FOR SOUTH DAKOTA
NATIONAL WEATHER SERVICE SIOUX FALLS SD
500 PM CDT THU AUG 25 2016

NOTE: "FAIR" INDICATES FEW OR NO CLOUDS BELOW 12,000 FEET WITH NO
SIGNIFICANT WEATHER AND/OR OBSTRUCTIONS TO VISIBILITY.


SDZ001>005-009-010-012>017-252300-
NORTHWEST AND NORTH CENTRAL SOUTH DAKOTA

CITY           SKY/WX    TMP DP  RH WIND       PRES   REMARKS
BUFFALO          N/A     68  40  35 NW6       30.15F
FAITH            N/A     67  45  45 N10       30.20F
MOBRIDGE       MOSUNNY   69  48  47 NW6       30.15F
$$

SDZ012>016-024>037-041>051-057-063-072>074-252300-
SOUTHWEST AND SOUTH CENTRAL SOUTH DAKOTA

CITY           SKY/WX    TMP DP  RH WIND       PRES   REMARKS
RAPID CTY ARPT MOSUNNY   68  41  37 VRB3      30.22F
PIERRE         SUNNY     72  46  39 NW14      30.15S
CUSTER         CLOUDY    55  45  68 E9        30.28S
ELLSWORTH AFB  SUNNY     69  40  35 N8        30.21F
PHILIP         SUNNY     73  43  33 NW10      30.18F
PINE RIDGE     MOSUNNY   67  49  52 VRB5      30.24F
WINNER         FAIR      75  48  38 NW13G21   30.18F
$$

SDZ004>011-016>023-039-040-252300-
NORTHEAST SOUTH DAKOTA

CITY           SKY/WX    TMP DP  RH WIND       PRES   REMARKS
ABERDEEN       CLOUDY    67  51  56 NW12      30.14S
WATERTOWN      MOSUNNY   68  52  56 NW16      30.13S
BROOKINGS      MOSUNNY   70  52  52 W16       30.12F
SISSETON         N/A     66  53  63 NW14      30.10S
$$

SDZ017-020-022-023-036>040-048>070-252300-
SOUTHEAST SOUTH DAKOTA

CITY           SKY/WX    TMP DP  RH WIND       PRES   REMARKS
SIOUX FALLS    MOSUNNY   74  55  51 W12       30.13F
HURON          MOSUNNY   74  47  38 W13       30.12F
CHAMBERLAIN    SUNNY     76  47  36 W12       30.16S
MITCHELL       SUNNY     75  50  41 W13       30.14F
YANKTON        SUNNY     75  52  43 NW9       30.13S
$$

ABBREVIATIONS USED IN REMARKS
   TC - TEMPERATURE IN CELSIUS
  WCI - WIND CHILL INDEX
   HX - HEAT INDEX
  VSB - VISIBILITY





USA.gov is the U.S. government's official web portal to all federal, state and local government web resources and services.